Location: Unspecified
(45.3999°N, 88.1269°W)
Time: 05:29:00
(UTC-05:00)

Cosmos 1674 - Visible Passes

Search period start: 27 June 2017 00:00
Search period end: 07 July 2017 00:00
Orbit: 497 x 524 km, 82.5° (Epoch: 26 June)

Date Brightness Start Highest point End Pass type
(mag) Time Alt. Az. Time Alt. Az. Time Alt. Az.
27 Jun 4.3 22:00:08 10° SW 22:03:38 35° WNW 22:07:06 10° N visible
28 Jun 3.8 21:43:22 10° SSW 21:46:59 45° WNW 21:50:37 10° N visible
29 Jun 3.3 21:26:40 10° SSW 21:30:22 58° W 21:34:05 10° N visible
03 Jul 5.9 21:58:16 10° W 21:59:56 12° WNW 22:01:35 10° NW visible
04 Jul 5.7 21:40:57 10° WSW 21:43:13 15° WNW 21:45:31 10° NNW visible
05 Jul 5.6 21:23:50 10° WSW 21:26:32 19° WNW 21:29:16 10° NNW visible
